Regional Weather Roundup
Issued by NWS Burlington, VT

Current Version | Previous Version | Graphics & Text | Print | Product List | Glossary Off
Versions: 1 2 3 4 5 6 7 8 9 10 11 12 13 14 15 16 17 18 19 20 21 22 23 24 25 26 27 28 29 30 31 32 33 34 35 36 37 38 39 40 41 42 43 44 45 46 47 48 49 50

000
ASUS41 KBTV 180310
RWRBTV
VERMONT REGIONAL WEATHER ROUNDUP
NATIONAL WEATHER SERVICE BURLINGTON VT
1100 PM EDT WED SEP 17 2014

NOTE: "FAIR" INDICATES FEW OR NO CLOUDS BELOW 12,000 FEET WITH NO
SIGNIFICANT WEATHER AND/OR OBSTRUCTIONS TO VISIBILITY.

* THESE REPORTS ARE NOT UNDER NWS QUALITY CONTROL AND/OR DO NOT
  REPORT WEATHER SUCH AS PRECIPITATION AND FOG.

VTZ001>019-180400-
_____VERMONT_____


CITY           SKY/WX    TMP DP  RH WIND       PRES   REMARKS
BURLINGTON     CLOUDY    57  46  66 S8        29.94S
MONTPELIER     PTCLDY    44  42  93 S5        29.99S
MORRISVILLE    PTCLDY    46  44  93 CALM      29.96S
ST. JOHNSBURY*   N/A     47  46  97 MISG      29.93S
MIDDLEBURY*    FAIR      52  48  86 CALM      29.95S
RUTLAND*       CLEAR     46  43  87 SE8       29.97S
SPRINGFIELD    FOG       45  44  97 CALM      29.98S VSB 1/2
HIGHGATE*      LGT RAIN  56  50  80 S6        29.91S
NEWPORT*       FAIR      50  44  80 S5        29.94S
BENNINGTON     CLEAR     44  42  93 CALM      29.98S FOG
SUTTON*          N/A     46 N/A N/A MISG        N/A

_____LAKE CHAMPLAIN_____


CITY           SKY/WX    TMP DP  RH WIND       PRES   REMARKS
COLCHESTER RF*   N/A     63  52  67 S15         N/A
DIAMOND ISL*     N/A     57  48  72 S5          N/A

$$

NYZ007-026>031-035-052-083-180400-
_____NORTHERN NEW YORK_____


CITY           SKY/WX    TMP DP  RH WIND       PRES   REMARKS
PLATTSBURGH    CLOUDY    53  48  83 S8        29.92S
SARANAC LAKE   CLOUDY    49  45  86 SW7       29.94S
MASSENA        CLOUDY    57  51  80 W5        29.92S
OGDENSBURG*    CLOUDY    57  52  82 SW7       29.92S
POTSDAM*       CLOUDY    57  52  82 SW7       29.93S
WATERTOWN      CLOUDY    57  48  72 S5        29.95S
FT DRUM        CLOUDY    58  46  66 SW6       29.95S
ALBANY         CLEAR     51  47  86 CALM      29.98S
GLENS FALLS    CLEAR     46  42  86 CALM      29.97S

$$
NHZ002-005-011-180400-
_____NEW HAMPSHIRE_____


CITY           SKY/WX    TMP DP  RH WIND       PRES   REMARKS
LEBANON        CLEAR     44  40  85 CALM      29.96S
KEENE          PTCLDY    46  37  71 CALM      29.99S
MT WASHINGTON  PTCLDY    34  30  86 W30         N/A
PLYMOUTH       FOG       42  42 100 CALM      29.96S VSB 1/2
WHITEFIELD     CLEAR     42  40  92 CALM      29.95F

$$

_____REGIONAL QUEBEC LOCATIONS_____


CITY           SKY/WX    TMP DP  RH WIND       PRES   REMARKS
MONTREAL       CLOUDY    57  52  82 SW12G20   29.89R
QUEBEC CITY    LGT RAIN  50  48  93 CALM      29.90S
SHERBROOKE     CLOUDY    54  45  71 SW5       29.90S

_____REGIONAL ONTARIO LOCATIONS_____


CITY           SKY/WX    TMP DP  RH WIND       PRES   REMARKS
OTTAWA         CLOUDY    55  54  94 W8        29.92R

______KEY______
VSB  - VISIBILITY IN MILES
WCI  - WIND CHILL INDEX
HX   - HEAT INDEX
$$
NNNN


USA.gov is the U.S. government's official web portal to all federal, state and local government web resources and services.